#timestamp,LO_Frequency,Hit,StdDev 
1606503615.3,286046997.0,N
1606503635.2,286046996.5,N
1606503655.0,286046997.6,N
1606503655.9,286046997.6,N
1606503675.7,286046996.6,N
1606503695.6,286046996.7,N
1606503715.4,286046999.5,N
1606503735.3,286046997.9,N
1606503755.1,286046996.5,N
1606503756.0,286046996.5,N
1606503775.8,286046996.7,N
1606503795.7,286046997.0,N
1606503815.5,286046997.4,N
1606503835.3,286046997.3,N
1606503855.2,286046997.2,N
1606503875.0,286046997.7,N
1606503875.9,286046997.7,N
1606503895.8,286046997.5,N
1606503915.6,286046996.7,Y
1606503935.4,286046998.1,P
1606503955.3,286046998.1,P
1606503975.1,286046998.3,P
1606503995.9,286047001.1,Y
1606504015.7,286047002.6,P
1606504035.5,286046999.8,N
1606504055.4,286047011.9,P
1606504075.2,286046999.7,N
1606504095.1,286047002.3,N
1606504096.0,286047002.3,N
1606504115.8,286047002.3,N
1606504135.6,286047002.3,N
1606504155.5,286047002.5,N
1606504175.3,286047002.0,N
1606504195.1,286047001.8,N
1606504215.9,286047002.1,N
1606504235.7,286047001.9,N
1606504255.6,286047002.0,N
1606504275.4,286047002.0,N
1606504295.2,286047001.9,N
1606504315.1,286047004.4,N
1606504316.0,286047004.4,N
1606504335.8,286047003.9,N
1606504355.6,286047004.2,N
1606504375.5,286047004.1,N
1606504395.3,286047004.1,N
1606504415.2,286047004.1,N
1606504435.9,286047001.8,N
1606504455.7,286047003.8,N
1606504475.6,286047004.0,N
1606504495.4,286047004.1,N
1606504515.2,286047004.4,N
1606504535.1,286047004.2,N
1606504536.0,286047004.2,N
1606504555.8,286047003.9,N
1606504575.7,286047004.2,N
1606504595.5,286047004.2,N
1606504615.3,286047003.9,Y
1606504635.2,286047000.4,P
1606504655.0,286047000.7,N
1606504655.9,286047000.7,N
1606504675.8,286047000.9,N
1606504695.6,286047001.0,N
1606504715.4,286047000.3,N
1606504735.3,286047000.9,N
1606504755.1,286047002.7,Y
1606504775.9,286046998.5,P
1606504795.7,286047000.0,N
1606504815.5,286047000.6,N
1606504835.4,286047000.7,N
1606504855.2,286047001.1,N
1606504875.0,286047000.9,N
1606504876.0,286047000.9,N
1606504895.8,286047000.7,N
1606504915.6,286047000.8,N
1606504935.5,286047000.9,N
1606504955.3,286047000.4,N
1606504975.1,286047000.6,N
1606504995.9,286046999.8,N
1606505015.7,286046999.7,N
1606505035.6,286046999.9,N
1606505055.4,286046999.8,N
1606505075.2,286047002.8,Y
1606505095.1,286046999.7,P
1606505096.0,286046999.7,N
1606505115.8,286047000.4,N
1606505135.7,286047002.8,Y
1606505155.5,286047000.5,P
1606505175.3,286047000.5,N
1606505195.2,286047000.2,N
1606505215.0,286047002.8,Y
1606505215.9,286047002.8,P
1606505235.8,286047000.1,N
1606505255.6,286047000.6,N
1606505275.4,286047000.0,N
1606505295.3,286047002.3,N
1606505315.1,286047000.5,N
1606505335.8,286047002.6,N
1606505355.7,286047002.8,N
1606505375.5,286046999.7,N
1606505395.4,286047002.8,N
1606505415.2,286046999.9,N
1606505435.0,286046999.8,N
1606505435.9,286046999.8,N
1606505455.8,286047002.4,N
1606505475.6,286047002.5,N
1606505495.5,286047001.6,N
1606505515.3,286047002.6,N
1606505535.1,286047002.3,N
1606505555.9,286047002.7,N
1606505575.7,286047002.6,N
1606505595.5,286047002.5,N
1606505615.4,286047002.2,N
1606505635.2,286047001.6,N
1606505655.1,286047001.8,N
1606505656.0,286047001.8,N
1606505675.8,286047001.5,N
1606505695.6,286047001.4,N
1606505715.5,286047001.6,N
1606505735.3,286047002.1,N
1606505755.1,286047002.2,N
1606505775.9,286047003.6,Y
1606505795.7,286046999.7,P
1606505815.6,286047002.7,N
1606505835.4,286047000.6,N
1606505855.2,286046999.8,N
1606505875.1,286047000.9,N
1606505876.0,286047000.9,N
1606505895.8,286047000.3,N
1606505915.7,286047000.6,N
1606505935.5,286047000.4,N
1606505955.3,286047000.3,N
1606505975.2,286047000.6,N
1606505995.0,286046999.8,N
1606505995.9,286046999.8,N
1606506015.8,286047002.8,Y
1606506035.6,286046999.8,P
1606506055.4,286047002.4,P
1606506075.3,286047000.5,N
1606506095.1,286047002.1,N
1606506115.8,286047002.3,N
1606506135.7,286047002.4,N
1606506155.5,286046999.8,N
1606506175.4,286047000.0,N
1606506195.2,286047000.3,N
1606506215.0,286046999.8,N
1606506215.9,286046999.8,N
1606506235.8,286047000.2,N
1606506255.6,286046999.8,N
1606506275.4,286047002.7,N
1606506295.3,286047002.1,N
1606506315.1,286047002.6,N
1606506335.9,286047002.5,N
1606506355.7,286047002.2,N
1606506375.5,286047002.3,N
1606506395.4,286046999.7,N
1606506415.2,286047002.0,N
1606506435.1,286047002.2,N
1606506436.0,286047002.2,N
1606506455.8,286047001.6,N
1606506475.6,286047002.0,N
1606506495.5,286047001.8,N
1606506515.3,286047002.5,N
1606506535.1,286047001.9,N
1606506555.9,286047002.6,N
1606506575.7,286047001.7,N
1606506595.6,286047001.6,N
1606506615.4,286046999.7,N
1606506635.2,286047002.2,N
1606506655.1,286047002.1,N
1606506656.0,286047002.1,N
1606506675.8,286046999.7,N
1606506695.7,286047002.2,N
1606506715.5,286047001.9,N
1606506735.3,286047001.5,N
1606506755.2,286047001.9,N
1606506775.0,286047001.3,N
1606506775.9,286047001.3,N
1606506795.8,286047002.2,N
1606506815.6,286047002.6,Y
1606506835.4,286047000.5,P
1606506855.3,286047000.7,N
1606506875.1,286047000.5,N
1606506895.9,286046998.1,Y
1606506915.7,286047001.2,P
1606506935.5,286046998.7,P
1606506955.4,286047000.8,N
1606506975.2,286047001.2,N
1606506995.0,286047000.4,N
1606506995.9,286047000.4,N
1606507015.8,286047000.0,N
1606507035.6,286047001.1,N
1606507055.5,286047000.6,N
1606507075.3,286046998.4,N
1606507095.1,286046998.1,N
1606507115.9,286046998.5,N
1606507135.7,286046998.3,N
1606507155.6,286046998.6,N
1606507175.4,286046998.8,N
1606507195.2,286046998.6,N
